Location: Elmsmere
(40.9284°N, 73.8207°W)
Time: 16:05:20
(UTC+00:00)

STARLINK-2717 - Pass Details

Date: 26 June 2021
Orbit: 546 x 548 km, 53.1° (Epoch: 27 July)

Event Time Altitude Azimuth Distance (km) Brightness Sun altitude
Exits shadow 08:09:13 12° 261° (W) 1,676 5.6 -11.9°
Maximum altitude 08:12:44 40° 330° (NNW) 817 4.6 -11.5°
Drops below altitude 10° 08:16:39 10° 41° (NE) 1,822 7.9 -10.9°
Sets 08:19:00 0° 49° (NE) 2,719 9.5 -10.6°
